Regional Weather Roundup
Issued by NWS Midland/Odessa, TX

Skip options and go directly to product.
Home | Oldest Version | Previous Version | Current Version | All | Text Only | Save Text | Print | Product List | Glossary Off

Skip product version selection by date and time.   

597
ASUS44 KMAF 300310
RWRMAF
MIDLAND AREA WEATHER ROUNDUP
NATIONAL WEATHER SERVICE MIDLAND TX
1000 PM CDT FRI APR 29 2016

...IN SOUTHWEST TEXAS AND SOUTHEAST NEW MEXICO...

CITY           SKY/WX    TMP DP  RH WIND       PRES   REMARKS
ALPINE         CLEAR     65   9  11 W8        29.92R
ANDREWS        FAIR      66  17  14 W8        29.78R
ARTESIA        CLEAR     66  23  19 SW15      29.78R
BIG SPRING     CLOUDY    70  21  16 W16       29.75R
CARLSBAD       CLEAR     67  21  17 SW9       29.77R
DRYDEN           N/A     81  23  11 N15       29.69R
FORT STOCKTON  CLEAR     67  14  13 NW10      29.78R
GUAD PASS      CLEAR     59  18  20 W33G45    29.86R
HOBBS          CLEAR     59  18  20 SW9       29.80R
MARFA          CLEAR     54  11  18 NW9       29.90R
MIDLAND AIRPK  CLEAR     72  15  11 W9        29.77R
MIDLAND INTL   CLEAR     66  17  15 W9        29.76R
ODESSA         CLEAR     67  15  13 W8        29.77R
PECOS          CLEAR     66  15  14 NW10      29.78R
PRESIDIO       FAIR      76   9   8 W12       29.77R
SEMINOLE       CLEAR     63  18  17 W7        29.78R
SNYDER           N/A     67  25  20 W5        29.72R
WINK           CLEAR     68  15  13 W10       29.76R
$$
...OTHER STATIONS IN TEXAS...

CITY           SKY/WX    TMP DP  RH WIND       PRES   REMARKS
ABILENE        CLEAR     73  32  22 NW13      29.68R
AMARILLO       CLEAR     45  42  89 N14       29.80S WCI  38
AUSTIN         CLOUDY    79  74  84 S10       29.62R
BROWNSVILLE    CLOUDY    79  77  94 SE15      29.63R
CORPUS CHRISTI CLOUDY    80  76  87 S20       29.62R
DALLAS FTW     MOCLDY    76  68  76 NW15      29.59R
DEL RIO        CLEAR     76  67  73 CALM      29.60R
EL PASO        PTCLDY    67  26  21 NW14      29.84R
HOUSTON INT    CLOUDY    76  71  85 S15G21    29.68R
LUBBOCK        CLEAR     59  45  59 NE13      29.77R
SAN ANGELO     CLEAR     71  39  31 W7        29.69R
SAN ANTONIO    TSTM      67  63  87 CALM      29.64F
WACO           TSTM      70  66  87 S15       29.65R
WICHITA FALLS  NOT AVBL
$$
...OTHER LOCATIONS IN NEW MEXICO...

CITY           SKY/WX    TMP DP  RH WIND       PRES   REMARKS
ALAMAGORDO     CLOUDY    63  25  23 W14G20    29.84R
ALBUQUERQUE    CLOUDY    52  33  48 SW13      29.86R
CANNON AFB     NOT AVBL
CLOVIS         CLEAR     48  43  81 NE13      29.81R
HOLLOMAN AFB   CLOUDY    64  26  23 SW18      29.82R
ROSWELL        MOCLDY    67  17  14 W12       29.76R
RUIDOSO          N/A     46  19  34 W8        29.91R
SANTA FE       CLOUDY    45  33  63 W12       29.85R WCI  39
TRUTH OR CONSE PTCLDY    60  25  26 W10       29.85R
TUCUMCARI      CLEAR     45  42  89 E6        29.80R
$$

USA.gov is the U.S. government's official web portal to all federal, state and local government web resources and services.